QPF
0.00 0.00 0.00 0.00 0.00 0.00 0.00 0.00 0.00 0.00 0.00 0.00 0.00 0.00 0.00 0.00 0.00 0.00 0.00 0.00 0.00 0.00 0.00 0.00 0.00 0.00 0.00 0.00 0.00 0.00 0.00 0.00 0.00 0.00 0.00 0.00 0.00 0.00 0.00 0.00 0.00 0.00
0.00 0.00 0.00 0.00 0.00 0.00 0.00 0.00 0.00 0.00 0.00 0.00 0.00 0.00 0.00 0.00 0.00 0.00 0.00 0.00 0.00 0.00 0.00 0.00 0.00 0.00 0.00 0.00 0.00 0.00 0.00 0.00 0.00 0.00 0.00 0.00 0.00 0.00 0.00 0.00 0.00 0.00
0.00 0.00 0.00 0.00 0.00 0.00 0.00 0.00 0.00 0.00 0.00 0.00 0.00 0.00 0.00 0.00 0.00 0.00 0.00 0.00 0.00 0.00 0.00 0.00 0.00 0.00 0.00 0.00 0.00 0.00 0.00 0.00 0.00 0.00 0.00 0.00 0.00 0.00 0.00 0.00 0.00 0.00
0.00 0.00 0.00 0.00 0.00 0.00 0.00 0.00 0.00 0.00 0.00 0.00 0.00 0.00 0.00 0.00 0.00 0.00 0.00 0.00 0.00 0.00 0.00 0.00 0.00 0.00 0.00 0.00 0.00 0.00 0.00 0.00 0.00 0.00 0.00 0.00 0.00 0.00 0.00 0.00 0.00 0.00
0.00 0.00 0.00 0.00 0.00 0.00 0.00 0.00 0.00 0.00 0.00 0.00 0.00 0.00 0.00 0.00 0.00 0.00 0.00 0.00 0.00 0.00 0.00 0.00 0.00 0.00 0.00 0.00 0.00 0.00 0.00 0.00 0.00 0.00 0.00 0.00 0.00 0.00 0.00 0.00 0.00 0.00
0.00 0.00 0.00 0.00 0.00 0.00 0.00 0.00 0.00 0.00 0.00 0.00 0.00 0.00 0.00 0.00 0.00 0.00 0.00 0.00 0.00 0.00 0.00 0.00 0.00 0.00 0.00 0.00 0.00 0.00 0.00 0.00 0.00 0.00 0.00 0.00 0.00 0.00 0.00 0.00 0.00 0.00
0.00 0.00 0.00 0.00 0.00 0.00 0.00 0.00 0.00 0.00 0.00 0.00 0.00 0.00 0.00 0.00 0.00 0.00 0.00 0.00 0.00 0.00 0.00 0.00 0.00 0.00 0.00 0.00 0.00 0.00 0.00 0.00 0.00 0.00 0.00 0.00 0.00 0.00 0.00 0.00 0.00 0.00
0.00 0.00 0.00 0.00 0.00 0.00 0.00 0.00 0.00 0.00 0.00 0.00 0.00 0.00 0.00 0.00 0.00 0.00 0.00 0.00 0.00 0.00 0.00 0.00 0.00 0.00 0.00 0.00 0.00 0.00 0.00 0.00 0.00 0.00 0.00 0.00 0.00 0.00 0.00 0.00 0.00 0.00
0.00 0.00 0.00 0.00 0.00 0.00 0.00 0.00 0.00 0.00 0.00 0.00 0.00 0.00 0.00 0.00 0.00 0.00 0.00 0.00 0.00 0.00 0.00 0.00 0.00 0.00 0.00 0.00 0.00 0.00 0.00 0.00 0.00 0.00 0.00 0.00 0.00 0.00 0.00 0.00 0.00 0.00
0.00 0.00 0.00 0.00 0.00 0.00 0.00 0.00 0.00 0.00 0.00 0.00 0.00 0.00 0.00 0.00 0.00 0.00 0.00 0.00 0.00 0.00 0.00 0.00 0.00 0.00 0.00 0.00 0.00 0.00 0.00 0.00 0.00 0.00 0.00 0.00 0.00 0.00 0.00 0.00 0.00 0.00
0.00 0.00 0.00 0.00 0.00 0.00 0.00 0.00 0.00 0.00 0.00 0.00 0.00 0.00 0.00 0.00 0.00 0.00 0.00 0.00 0.00 0.00 0.00 0.00 0.00 0.00 0.00 0.00 0.00 0.00 0.00 0.00 0.00 0.00 0.00 0.00 0.00 0.00 0.00 0.00 0.00 0.00
0.32 0.10 0.00 0.01 0.01 0.01 0.00 0.00 0.00 0.00 0.00 0.00 0.00 0.00 0.00 0.00 0.00 0.00 0.00 0.00 0.00 0.00 0.00 0.00 0.00 0.00 0.00 0.00 0.00 0.00 0.00 0.00 0.00 0.00 0.00 0.00 0.00 0.00 0.00 0.00 0.00 0.00
0.08 0.12 0.05 0.03 0.00 0.00 0.00 0.00 0.00 0.00 0.00 0.00 0.00 0.00 0.00 0.00 0.00 0.00 0.00 0.00 0.00 0.00 0.00 0.00 0.00 0.00 0.00 0.00 0.00 0.00 0.00 0.00 0.00 0.00 0.00 0.00 0.00 0.00 0.00 0.00 0.00 0.00
0.01 0.01 0.01 0.02 0.00 0.00 0.00 0.00 0.00 0.00 0.00 0.00 0.00 0.00 0.00 0.00 0.00 0.00 0.00 0.00 0.00 0.00 0.00 0.00 0.00 0.00 0.00 0.00 0.00 0.00 0.00 0.00 0.00 0.00 0.00 0.00 0.00 0.00 0.00 0.00 0.00 0.00
0.00 0.00 0.00 0.00 0.00 0.00 0.00 0.00 0.00 0.00 0.00 0.00 0.00 0.00 0.00 0.00 0.00 0.00 0.00 0.00 0.00 0.00 0.00 0.00 0.00 0.00 0.00 0.00 0.00 0.00 0.00 0.00 0.00 0.00 0.00 0.00 0.00 0.00 0.00 0.00 0.00 0.00
0.02 0.02 0.01 0.00 0.00 0.00 0.00 0.01 0.00 0.00 0.00 0.00 0.00 0.00 0.00 0.00 0.00 0.00 0.00 0.00 0.00 0.00 0.00 0.00 0.00 0.00 0.00 0.00 0.00 0.00 0.00 0.00 0.00 0.00 0.00 0.00 0.00 0.00 0.00 0.00 0.00 0.00
0.04 0.02 0.05 0.05 0.01 0.02 0.00 0.01 0.01 0.00 0.00 0.00 0.00 0.00 0.00 0.00 0.00 0.00 0.00 0.00 0.00 0.00 0.00 0.00 0.00 0.00 0.00 0.00 0.00 0.00 0.00 0.00 0.00 0.00 0.00 0.00 0.00 0.00 0.00 0.00 0.00 0.00
0.03 0.01 0.21 0.40 0.02 0.01 0.05 0.07 0.02 0.00 0.00 0.00 0.00 0.00 0.00 0.00 0.00 0.00 0.00 0.00 0.00 0.00 0.00 0.00 0.00 0.00 0.00 0.00 0.00 0.00 0.00 0.00 0.00 0.00 0.00 0.00 0.00 0.00 0.00 0.00 0.00 0.00
0.00 0.00 0.01 0.00 0.02 0.16 0.07 0.01 0.02 0.02 0.01 0.01 0.00 0.00 0.00 0.00 0.00 0.00 0.00 0.00 0.00 0.00 0.00 0.00 0.00 0.00 0.00 0.00 0.00 0.00 0.00 0.00 0.00 0.00 0.00 0.00 0.00 0.00 0.00 0.00 0.00 0.00
0.00 0.00 0.01 0.01 0.00 0.02 0.05 0.09 0.03 0.05 0.04 0.25 0.10 0.00 0.00 0.00 0.00 0.00 0.00 0.00 0.00 0.00 0.00 0.00 0.00 0.00 0.00 0.00 0.00 0.00 0.00 0.00 0.00 0.00 0.00 0.00 0.00 0.00 0.00 0.00 0.00 0.00
0.00 0.00 0.00 0.00 0.00 0.00 0.01 0.01 0.00 0.00 0.05 0.08 0.00 0.00 0.00 0.00 0.00 0.00 0.00 0.00 0.00 0.00 0.00 0.00 0.00 0.00 0.00 0.00 0.00 0.00 0.00 0.00 0.00 0.00 0.00 0.00 0.00 0.00 0.00 0.00 0.00 0.00
0.01 0.00 0.00 0.00 0.00 0.00 0.00 0.00 0.00 0.00 0.00 0.00 0.00 0.00 0.00 0.00 0.00 0.00 0.00 0.00 0.00 0.00 0.00 0.00 0.00 0.00 0.00 0.00 0.00 0.00 0.00 0.00 0.00 0.00 0.00 0.00 0.00 0.00 0.00 0.00 0.00 0.00
0.00 0.02 0.06 0.14 0.13 0.19 0.31 0.03 0.00 0.00 0.00 0.00 0.00 0.00 0.00 0.00 0.00 0.00 0.00 0.00 0.00 0.00 0.00 0.00 0.00 0.00 0.00 0.00 0.00 0.00 0.00 0.00 0.00 0.00 0.00 0.00 0.00 0.00 0.00 0.00 0.00 0.00
0.26 0.47 0.08 0.04 0.17 0.07 0.01 0.01 0.00 0.00 0.00 0.00 0.00 0.00 0.00 0.00 0.00 0.00 0.00 0.00 0.00 0.00 0.00 0.00 0.00 0.00 0.00 0.00 0.00 0.00 0.00 0.00 0.00 0.11 0.02 0.17 0.05 0.00 0.00 0.00 0.00 0.00
0.00 0.01 0.11 0.15 0.26 0.22 0.15 0.12 0.00 0.00 0.00 0.00 0.00 0.00 0.00 0.00 0.00 0.00 0.00 0.00 0.00 0.00 0.00 0.00 0.00 0.00 0.00 0.00 0.00 0.00 0.00 0.00 0.00 0.00 0.00 0.00 0.00 0.00 0.00 0.00 0.00 0.00
0.00 0.00 0.00 0.00 0.00 0.00 0.00 0.01 0.01 0.01 0.01 0.00 0.00 0.00 0.00 0.00 0.00 0.00 0.00 0.00 0.00 0.00 0.00 0.00 0.00 0.00 0.00 0.00 0.00 0.00 0.00 0.00 0.00 0.00 0.00 0.00 0.00 0.00 0.00 0.00 0.00 0.00
MSLP
1016.77 1017.01 1017.25 1017.49 1017.65 1017.77 1018.01 1018.21 1018.33 1018.37 1018.45 1018.45 1018.41 1018.61 1018.65 1018.77 1018.77 1018.69 1018.61 1018.57 1018.57 1018.57 1018.65 1018.65 1018.69 1018.81 1018.93 1018.97 1019.09 1019.21 1019.37 1019.49 1019.65 1019.81 1019.89 1020.05 1020.25 1020.33 1020.49 1020.61 1020.73 1020.81
1016.89 1017.05 1017.25 1017.49 1017.69 1017.81 1017.97 1018.05 1018.25 1018.29 1018.49 1018.57 1018.53 1018.61 1018.77 1018.85 1018.93 1018.81 1018.73 1018.73 1018.77 1018.77 1018.81 1018.81 1018.85 1018.89 1018.97 1019.09 1019.13 1019.21 1019.37 1019.45 1019.57 1019.81 1019.89 1020.05 1020.17 1020.25 1020.33 1020.45 1020.57 1020.77
1016.89 1017.09 1017.21 1017.33 1017.53 1017.77 1017.93 1018.13 1018.21 1018.37 1018.45 1018.65 1018.69 1018.69 1018.77 1018.89 1018.97 1019.05 1018.97 1018.93 1018.97 1019.05 1019.05 1019.01 1019.05 1019.05 1019.13 1019.21 1019.33 1019.41 1019.53 1019.65 1019.69 1019.93 1019.89 1019.97 1020.13 1020.21 1020.41 1020.49 1020.53 1020.61
1016.93 1016.97 1017.13 1017.41 1017.61 1017.81 1018.01 1018.13 1018.37 1018.49 1018.61 1018.73 1018.81 1018.85 1018.89 1019.01 1019.05 1019.05 1019.09 1019.13 1019.17 1019.29 1019.33 1019.25 1019.25 1019.29 1019.25 1019.37 1019.45 1019.61 1019.73 1019.85 1019.97 1019.97 1020.01 1020.25 1020.33 1020.29 1020.41 1020.45 1020.57 1020.69
1016.85 1017.09 1017.29 1017.53 1017.77 1017.93 1018.05 1018.17 1018.41 1018.57 1018.69 1018.85 1018.97 1019.01 1019.01 1019.09 1019.13 1019.17 1019.25 1019.37 1019.33 1019.41 1019.45 1019.45 1019.45 1019.45 1019.49 1019.53 1019.53 1019.69 1019.81 1019.93 1020.05 1020.01 1020.05 1020.25 1020.41 1020.41 1020.45 1020.45 1020.61 1020.77
1016.93 1017.05 1017.25 1017.45 1017.73 1017.89 1018.13 1018.29 1018.45 1018.61 1018.77 1018.89 1019.05 1019.17 1019.17 1019.21 1019.25 1019.29 1019.33 1019.41 1019.53 1019.53 1019.61 1019.61 1019.61 1019.65 1019.61 1019.57 1019.65 1019.77 1019.85 1019.97 1020.17 1020.09 1020.09 1020.29 1020.49 1020.57 1020.61 1020.77 1020.77 1020.81
1016.93 1017.09 1017.29 1017.53 1017.69 1017.85 1018.05 1018.29 1018.45 1018.65 1018.77 1018.93 1019.13 1019.21 1019.29 1019.33 1019.33 1019.41 1019.41 1019.49 1019.61 1019.61 1019.65 1019.69 1019.73 1019.77 1019.81 1019.73 1019.73 1019.85 1019.97 1020.01 1020.17 1020.13 1020.17 1020.45 1020.53 1020.73 1020.85 1020.81 1020.65 1020.69
1016.93 1017.17 1017.33 1017.45 1017.61 1017.89 1018.01 1018.25 1018.41 1018.61 1018.77 1018.93 1019.01 1019.33 1019.41 1019.37 1019.53 1019.61 1019.61 1019.61 1019.65 1019.77 1019.81 1019.85 1019.89 1019.93 1020.01 1019.89 1019.89 1020.01 1020.09 1020.13 1020.21 1020.25 1020.33 1020.45 1020.49 1020.57 1020.69 1020.69 1020.73 1020.69
1016.77 1017.09 1017.29 1017.45 1017.61 1017.89 1018.05 1018.21 1018.41 1018.65 1018.81 1018.85 1019.05 1019.25 1019.49 1019.53 1019.53 1019.69 1019.77 1019.77 1019.85 1019.93 1019.97 1020.01 1020.05 1020.09 1020.21 1020.09 1020.09 1020.09 1020.21 1020.33 1020.37 1020.37 1020.41 1020.53 1020.53 1020.65 1020.73 1020.73 1020.73 1020.81
1017.29 1017.37 1017.37 1017.53 1017.69 1017.93 1018.05 1018.25 1018.45 1018.65 1018.81 1018.89 1019.05 1019.25 1019.33 1019.61 1019.73 1019.77 1019.81 1019.89 1019.97 1020.09 1020.13 1020.09 1020.17 1020.25 1020.29 1020.29 1020.25 1020.25 1020.33 1020.41 1020.53 1020.53 1020.57 1020.57 1020.61 1020.73 1020.81 1020.81 1020.81 1020.93
1017.85 1017.81 1017.85 1017.77 1017.97 1018.09 1018.21 1018.37 1018.49 1018.69 1018.89 1018.97 1019.13 1019.29 1019.45 1019.53 1019.65 1019.89 1019.89 1019.97 1020.01 1020.09 1020.17 1020.21 1020.25 1020.29 1020.29 1020.37 1020.45 1020.41 1020.41 1020.45 1020.53 1020.65 1020.73 1020.77 1020.81 1020.81 1020.89 1020.89 1020.97 1020.93
1018.17 1018.25 1018.09 1018.05 1017.93 1018.05 1018.21 1018.41 1018.57 1018.77 1018.97 1019.17 1019.21 1019.33 1019.49 1019.53 1019.57 1019.69 1019.85 1019.93 1020.13 1020.21 1020.21 1020.25 1020.37 1020.41 1020.37 1020.41 1020.49 1020.57 1020.57 1020.57 1020.61 1020.65 1020.69 1020.81 1020.89 1020.93 1020.93 1021.01 1020.93 1021.05
1017.93 1018.21 1018.09 1018.01 1017.89 1018.09 1018.29 1018.53 1018.65 1018.89 1019.05 1019.21 1019.29 1019.37 1019.45 1019.57 1019.61 1019.69 1019.81 1019.93 1020.05 1020.21 1020.29 1020.25 1020.37 1020.49 1020.45 1020.49 1020.53 1020.61 1020.61 1020.61 1020.69 1020.73 1020.77 1020.81 1020.89 1020.89 1020.93 1020.97 1020.97 1021.01
1018.37 1018.49 1018.49 1018.29 1018.25 1018.33 1018.41 1018.61 1018.81 1019.01 1019.17 1019.33 1019.41 1019.41 1019.57 1019.61 1019.69 1019.69 1019.77 1019.93 1020.05 1020.09 1020.21 1020.37 1020.45 1020.49 1020.57 1020.53 1020.53 1020.57 1020.65 1020.69 1020.73 1020.73 1020.81 1020.89 1020.89 1020.93 1021.01 1021.01 1021.01 1020.97
1018.69 1018.69 1018.69 1018.61 1018.61 1018.69 1018.69 1018.81 1018.97 1019.09 1019.21 1019.33 1019.41 1019.45 1019.49 1019.73 1019.77 1019.81 1019.89 1019.93 1020.09 1020.13 1020.17 1020.33 1020.45 1020.49 1020.53 1020.57 1020.61 1020.73 1020.81 1020.81 1020.85 1020.85 1020.89 1020.93 1020.97 1021.01 1021.09 1021.13 1021.13 1021.09
1018.49 1018.69 1018.73 1018.57 1018.73 1018.85 1018.89 1018.81 1019.05 1019.21 1019.25 1019.41 1019.45 1019.45 1019.49 1019.65 1019.73 1019.85 1019.93 1020.09 1020.09 1020.09 1020.25 1020.37 1020.41 1020.49 1020.49 1020.45 1020.57 1020.61 1020.85 1020.93 1021.05 1021.05 1021.13 1021.13 1021.09 1021.13 1021.17 1021.25 1021.25 1021.25
1018.77 1018.89 1018.93 1019.05 1019.17 1019.17 1018.97 1018.89 1019.01 1019.33 1019.49 1019.57 1019.61 1019.65 1019.61 1019.73 1019.81 1019.73 1019.81 1020.01 1020.25 1020.21 1020.17 1020.33 1020.41 1020.41 1020.37 1020.49 1020.45 1020.53 1020.69 1020.85 1020.93 1021.05 1021.17 1021.21 1021.21 1021.21 1021.17 1021.13 1021.17 1021.25
1019.21 1019.25 1019.45 1019.81 1019.69 1019.57 1019.61 1019.65 1019.61 1019.61 1019.73 1019.89 1019.97 1019.97 1020.01 1019.89 1019.89 1020.01 1019.97 1020.05 1020.13 1020.33 1020.45 1020.45 1020.41 1020.37 1020.49 1020.57 1020.61 1020.57 1020.57 1020.61 1020.73 1020.85 1021.05 1021.13 1021.17 1021.21 1021.21 1021.25 1021.21 1021.21
1019.69 1019.93 1020.17 1020.21 1020.29 1020.29 1020.25 1020.17 1020.21 1020.21 1020.37 1020.49 1020.57 1020.53 1020.21 1020.21 1020.33 1020.25 1020.25 1020.25 1020.25 1020.25 1020.33 1020.49 1020.61 1020.69 1020.81 1020.81 1020.81 1020.81 1020.81 1020.81 1020.77 1020.77 1020.85 1020.97 1021.09 1021.13 1021.13 1021.13 1021.13 1021.17
1020.61 1020.73 1020.77 1020.85 1020.85 1020.81 1020.73 1020.69 1020.77 1021.05 1021.21 1021.33 1021.25 1021.01 1020.85 1020.81 1020.77 1020.69 1020.65 1020.57 1020.53 1020.45 1020.41 1020.45 1020.53 1020.61 1020.73 1020.77 1020.81 1020.89 1021.09 1021.29 1021.09 1020.97 1020.89 1020.89 1020.97 1021.01 1021.01 1020.97 1020.97 1021.01
1021.29 1021.37 1021.53 1021.69 1021.73 1021.65 1021.45 1021.37 1021.41 1021.41 1021.41 1021.61 1021.57 1021.53 1021.41 1021.37 1021.37 1021.21 1021.21 1021.09 1020.97 1020.89 1020.81 1020.73 1020.65 1020.69 1020.65 1020.65 1020.65 1020.73 1020.89 1021.25 1021.29 1021.33 1021.21 1021.09 1020.93 1020.85 1020.81 1020.81 1020.81 1020.81
1021.81 1022.01 1022.13 1022.17 1022.33 1022.37 1022.21 1021.97 1021.85 1021.77 1021.73 1021.77 1021.73 1021.77 1021.81 1021.69 1021.57 1021.53 1021.41 1021.29 1021.21 1021.13 1021.05 1020.97 1020.97 1021.09 1021.17 1021.13 1021.09 1020.93 1020.97 1021.01 1021.05 1021.09 1021.05 1020.97 1020.89 1020.85 1020.77 1020.69 1020.73 1020.89
1022.41 1022.45 1022.45 1022.61 1022.65 1022.65 1022.69 1022.45 1022.21 1022.05 1022.01 1021.97 1021.81 1021.97 1021.97 1021.97 1022.05 1022.05 1022.01 1021.81 1021.57 1021.41 1021.29 1021.13 1021.01 1021.01 1021.21 1021.37 1021.45 1021.49 1021.33 1021.13 1021.13 1021.05 1020.97 1020.81 1020.65 1020.57 1020.57 1020.57 1020.65 1020.73
1022.77 1022.85 1022.89 1022.93 1022.85 1022.93 1022.93 1022.85 1022.73 1022.53 1022.41 1022.37 1022.33 1022.29 1022.21 1022.29 1022.33 1022.17 1022.17 1022.17 1022.05 1021.93 1021.85 1021.65 1021.45 1021.33 1021.41 1021.41 1021.49 1021.61 1021.77 1021.53 1021.21 1021.05 1020.81 1020.69 1020.49 1020.41 1020.45 1020.49 1020.45 1020.37
1023.01 1022.93 1023.01 1022.97 1023.13 1023.33 1023.45 1023.45 1023.29 1023.13 1023.05 1022.85 1022.73 1022.69 1022.65 1022.61 1022.53 1022.57 1022.61 1022.61 1022.65 1022.57 1022.29 1022.13 1022.05 1021.85 1021.69 1021.69 1021.65 1021.77 1021.77 1021.69 1021.57 1021.29 1021.01 1020.65 1020.45 1020.33 1020.33 1020.41 1020.37 1020.37
1023.61 1023.61 1023.53 1023.49 1023.45 1023.49 1023.53 1023.69 1023.73 1023.53 1023.49 1023.33 1023.13 1023.09 1023.05 1022.97 1022.93 1022.93 1022.93 1022.93 1022.97 1022.81 1022.73 1022.61 1022.37 1022.17 1022.05 1021.93 1021.85 1021.89 1022.01 1022.01 1021.89 1021.69 1021.37 1020.89 1020.61 1020.33 1019.97 1019.89 1020.09 1020.17
Thickness
5622 5620 5618 5616 5616 5615 5614 5613 5612 5612 5613 5614 5614 5613 5613 5614 5614 5616 5616 5617 5619 5619 5620 5621 5621 5621 5620 5620 5620 5619 5618 5617 5616 5615 5614 5613 5612 5611 5611 5610 5609 5608
5620 5619 5618 5616 5615 5614 5613 5612 5611 5612 5612 5612 5612 5612 5611 5610 5611 5612 5613 5614 5614 5615 5617 5618 5619 5619 5618 5618 5618 5617 5616 5615 5615 5614 5613 5612 5611 5611 5611 5610 5609 5607
5618 5618 5617 5615 5614 5613 5612 5611 5610 5610 5610 5610 5609 5609 5609 5609 5609 5609 5610 5610 5611 5611 5613 5615 5615 5616 5616 5615 5615 5614 5613 5612 5612 5612 5611 5611 5611 5610 5610 5609 5608 5607
5616 5616 5615 5614 5612 5611 5610 5609 5609 5608 5608 5607 5607 5607 5607 5607 5607 5607 5607 5607 5608 5608 5609 5611 5612 5613 5613 5612 5612 5611 5610 5609 5609 5609 5609 5609 5608 5608 5608 5607 5606 5605
5614 5613 5612 5611 5609 5609 5608 5608 5607 5606 5605 5604 5604 5605 5606 5606 5606 5605 5605 5605 5606 5606 5607 5608 5608 5610 5610 5609 5609 5608 5608 5607 5607 5607 5608 5606 5605 5606 5605 5605 5604 5603
5611 5611 5610 5609 5607 5607 5606 5605 5604 5604 5603 5602 5602 5602 5602 5603 5603 5603 5603 5603 5604 5604 5604 5605 5605 5606 5607 5607 5607 5606 5606 5605 5604 5605 5605 5604 5603 5602 5602 5601 5602 5601
5609 5608 5608 5607 5606 5606 5606 5604 5602 5602 5601 5600 5600 5599 5599 5600 5600 5600 5600 5600 5601 5601 5601 5602 5602 5603 5603 5604 5604 5603 5603 5603 5603 5603 5602 5601 5600 5599 5599 5599 5600 5600
5609 5607 5607 5606 5606 5605 5605 5603 5601 5600 5599 5598 5598 5597 5597 5597 5597 5597 5597 5597 5598 5598 5599 5599 5599 5599 5599 5600 5601 5601 5600 5600 5600 5600 5599 5598 5598 5598 5597 5597 5598 5598
5608 5607 5605 5604 5605 5604 5603 5601 5599 5599 5598 5597 5597 5596 5594 5594 5594 5594 5594 5594 5595 5595 5596 5596 5596 5596 5596 5597 5598 5598 5598 5597 5597 5597 5597 5596 5596 5596 5595 5595 5596 5595
5602 5602 5602 5603 5603 5602 5600 5599 5598 5597 5596 5596 5595 5595 5594 5593 5592 5591 5591 5591 5592 5592 5592 5593 5593 5594 5594 5594 5595 5595 5595 5595 5594 5594 5594 5594 5594 5593 5593 5593 5593 5592
5595 5596 5597 5599 5599 5599 5598 5597 5596 5595 5594 5594 5594 5593 5592 5592 5591 5590 5589 5590 5590 5589 5590 5590 5590 5591 5591 5591 5592 5592 5593 5593 5592 5592 5591 5591 5591 5591 5590 5590 5590 5589
5592 5593 5594 5596 5597 5596 5595 5594 5593 5592 5591 5591 5591 5591 5590 5590 5590 5589 5589 5588 5588 5587 5587 5587 5587 5587 5589 5589 5589 5589 5589 5590 5590 5590 5590 5589 5588 5588 5588 5587 5587 5587
5590 5589 5591 5593 5594 5593 5592 5591 5590 5589 5588 5588 5588 5588 5588 5588 5589 5588 5588 5587 5586 5586 5585 5585 5585 5585 5585 5586 5586 5586 5586 5587 5587 5586 5587 5587 5586 5586 5585 5584 5584 5584
5584 5584 5585 5588 5589 5588 5588 5588 5587 5586 5585 5585 5585 5585 5585 5585 5586 5586 5586 5585 5585 5584 5583 5582 5582 5582 5583 5583 5583 5583 5583 5584 5584 5584 5584 5583 5583 5583 5582 5582 5582 5582
5580 5580 5581 5583 5584 5583 5583 5583 5583 5582 5582 5582 5582 5583 5582 5582 5582 5582 5582 5582 5582 5582 5581 5580 5580 5580 5580 5580 5580 5580 5580 5580 5580 5580 5580 5580 5580 5579 5579 5578 5578 5578
5578 5578 5579 5580 5580 5579 5579 5581 5580 5579 5579 5579 5579 5579 5580 5580 5579 5580 5580 5579 5579 5579 5579 5578 5578 5577 5577 5578 5578 5578 5576 5576 5576 5575 5575 5575 5575 5575 5575 5575 5574 5574
5574 5575 5574 5574 5574 5574 5575 5576 5576 5575 5575 5574 5575 5576 5576 5577 5577 5578 5578 5577 5576 5576 5576 5575 5575 5575 5575 5575 5575 5575 5574 5573 5572 5571 5571 5571 5571 5570 5570 5571 5571 5570
5568 5569 5568 5566 5567 5568 5569 5569 5570 5570 5570 5570 5569 5570 5571 5572 5573 5573 5574 5573 5573 5573 5572 5572 5572 5573 5572 5571 5571 5571 5571 5571 5570 5570 5568 5567 5567 5567 5567 5567 5567 5567
5561 5561 5560 5559 5560 5561 5561 5562 5562 5562 5563 5563 5562 5563 5565 5567 5567 5568 5569 5569 5569 5570 5570 5570 5569 5569 5568 5567 5567 5567 5566 5566 5567 5567 5566 5565 5565 5564 5564 5564 5564 5564
5552 5551 5552 5551 5551 5552 5554 5555 5555 5554 5555 5555 5554 5556 5559 5560 5560 5562 5563 5564 5565 5565 5566 5566 5566 5565 5564 5564 5563 5562 5562 5561 5561 5561 5562 5562 5562 5561 5561 5562 5562 5561
5545 5544 5544 5543 5543 5544 5545 5547 5548 5549 5549 5549 5548 5551 5553 5554 5555 5556 5557 5558 5558 5559 5560 5560 5561 5561 5560 5559 5560 5559 5558 5556 5556 5556 5556 5557 5558 5558 5559 5559 5559 5558
5538 5538 5538 5537 5537 5537 5537 5539 5542 5544 5545 5545 5546 5547 5548 5548 5549 5550 5551 5552 5553 5554 5555 5555 5555 5555 5554 5553 5554 5554 5554 5553 5552 5552 5552 5553 5555 5555 5555 5556 5555 5555
5531 5532 5532 5532 5532 5532 5531 5533 5535 5538 5540 5541 5542 5541 5542 5541 5542 5542 5544 5545 5547 5548 5550 5550 5551 5550 5549 5548 5547 5547 5547 5548 5548 5549 5549 5550 5551 5551 5552 5552 5552 5551
5525 5526 5525 5525 5526 5526 5525 5526 5527 5530 5532 5533 5534 5534 5534 5535 5535 5535 5537 5538 5539 5540 5542 5543 5544 5544 5544 5543 5542 5541 5541 5541 5542 5544 5545 5547 5548 5548 5548 5548 5548 5548
5518 5519 5519 5520 5520 5519 5518 5518 5519 5520 5521 5523 5525 5526 5526 5527 5528 5528 5529 5530 5530 5531 5533 5534 5534 5535 5536 5536 5536 5535 5535 5535 5535 5536 5538 5541 5543 5544 5545 5544 5544 5544
5508 5510 5511 5512 5513 5512 5512 5511 5511 5511 5512 5514 5516 5517 5518 5519 5520 5520 5520 5521 5522 5523 5524 5525 5526 5527 5528 5529 5528 5528 5527 5528 5528 5528 5529 5532 5534 5536 5539 5540 5540 5539